Wind_Speed
33 33 32 32 32 32 31 30 29 28 28 27 26 26 26 26 25 24 23 22 21 20 19 18 17 15 14 13 12 11 11 10 10 9 9 9 8 8 8 7 7 7 6 6 7 7 7 8 8 9 9 9 9 10 10 11 12 12 13 13 14 14 14 15 14 14 13 14 15 15 14 14 16 15 14 13 11 9 11 11 11 11 9 8 7 7 9 9
34 34 34 33 33 33 32 32 31 30 29 29 28 28 28 27 26 25 24 24 23 22 21 19 18 17 16 15 14 13 12 11 11 10 10 9 9 8 8 7 7 7 7 7 7 8 8 9 9 10 10 11 11 12 12 13 13 14 14 14 15 15 14 14 14 14 14 15 16 16 16 14 15 16 14 12 11 8 9 11 13 13 10 9 10 10 10 10
36 35 35 35 35 35 34 33 33 32 31 30 30 30 30 29 28 27 26 25 24 23 22 21 20 19 18 16 16 14 13 13 12 11 11 10 9 9 8 8 7 7 7 8 8 9 10 10 11 12 12 13 13 14 14 15 15 15 15 15 16 15 14 15 16 15 15 16 17 17 17 15 15 17 15 13 11 8 8 12 14 13 12 11 11 12 12 12
37 37 37 37 37 36 36 35 35 34 33 33 33 33 32 31 30 28 27 26 25 24 23 22 22 21 20 19 17 16 15 15 14 13 12 11 10 10 9 8 8 8 8 8 9 10 11 12 13 14 14 15 15 15 16 16 16 16 16 16 15 14 15 17 17 17 17 17 17 18 18 16 17 17 16 15 12 10 10 12 14 14 14 13 13 14 14 14
39 39 39 39 39 38 38 37 37 36 35 35 35 35 34 33 32 30 29 28 27 26 25 24 24 23 22 21 20 18 17 16 15 15 14 13 12 11 11 10 9 9 9 9 10 11 12 13 14 15 16 16 16 17 17 17 17 16 16 16 15 15 17 18 19 19 19 18 18 19 19 18 18 17 16 16 14 12 11 12 14 15 15 15 15 16 16 16
41 41 41 41 41 41 40 40 39 38 37 37 37 37 36 35 34 32 31 30 29 28 27 26 25 25 24 23 21 20 19 17 16 16 15 14 14 13 13 12 11 10 10 10 10 11 12 13 14 15 16 16 16 17 17 17 17 16 16 16 16 15 18 20 20 21 20 20 20 20 20 19 19 18 17 16 16 14 12 12 14 15 16 17 17 17 18 18
43 43 43 43 43 43 42 42 41 40 39 39 39 39 38 37 36 34 33 32 31 30 29 28 27 26 25 24 23 22 21 19 18 17 17 16 16 15 15 14 13 12 12 11 11 12 12 13 14 15 15 15 16 17 17 16 16 15 16 17 17 17 19 21 22 22 22 21 21 21 21 20 19 18 18 17 17 17 15 14 15 16 16 17 18 19 19 20
43 44 44 45 45 45 44 44 43 42 41 41 41 41 40 39 38 37 35 34 33 31 31 30 29 28 27 26 25 24 22 21 21 19 19 18 18 17 17 16 15 15 14 13 13 13 13 13 15 15 15 15 16 17 17 17 16 16 17 18 19 19 20 22 23 23 23 22 22 21 21 21 20 18 18 17 18 19 17 16 17 17 17 18 19 20 20 20
43 44 45 45 46 46 46 45 45 44 43 43 43 43 42 41 40 39 37 36 34 33 33 32 31 30 29 28 26 25 24 24 23 22 21 20 20 19 19 19 18 17 16 15 14 14 14 14 14 15 15 16 16 17 18 17 17 17 18 19 20 20 21 23 24 24 24 23 23 22 21 21 20 18 17 18 20 21 19 18 18 18 19 20 20 20 20 21
42 43 44 45 46 47 47 46 46 45 44 44 44 44 44 43 42 40 39 38 36 35 34 33 33 31 30 29 28 27 26 26 26 24 24 23 22 22 22 21 20 19 18 17 16 16 15 15 15 15 15 16 17 18 18 18 18 19 19 19 21 22 22 23 24 25 24 25 24 23 22 21 20 19 18 19 20 20 20 19 18 19 20 20 20 21 21 21
41 42 43 45 46 46 46 47 46 45 45 45 46 46 46 45 43 42 41 39 38 37 36 35 34 33 32 31 30 29 27 27 27 26 25 25 25 24 24 23 22 21 20 20 19 17 17 17 16 16 16 17 18 18 19 20 20 20 20 21 22 23 23 24 25 26 25 25 26 25 23 21 20 19 19 21 20 20 21 20 20 20 20 20 21 21 22 22
41 42 42 43 45 45 46 46 46 46 46 46 47 47 47 46 45 44 42 41 40 39 38 37 36 35 34 32 32 31 29 29 28 27 27 26 26 26 25 25 24 23 23 22 21 20 19 18 18 18 18 18 18 19 21 21 21 22 22 22 24 25 24 25 26 27 26 26 26 26 23 21 20 20 19 20 20 20 21 21 21 21 21 21 22 22 23 23
41 42 42 43 44 44 45 46 46 46 46 46 47 47 48 47 46 45 44 43 42 41 40 39 38 37 35 34 33 32 31 30 30 29 28 28 28 27 27 26 26 25 25 24 23 22 21 20 20 20 20 20 19 21 22 22 23 23 24 24 26 26 25 25 27 28 28 27 26 27 23 19 20 20 19 20 20 21 21 22 22 22 22 22 23 23 23 24
42 42 42 43 43 44 44 45 45 45 46 47 47 48 48 47 47 46 45 44 43 42 41 40 39 38 37 36 35 34 33 32 31 30 30 30 29 29 28 28 28 27 26 26 25 25 23 22 22 21 21 22 22 22 23 24 24 25 26 26 27 28 26 26 27 28 28 28 28 28 24 19 20 21 20 20 20 21 22 23 24 24 24 23 24 24 24 24
44 44 43 43 43 43 44 44 45 45 46 46 47 48 48 48 48 47 46 45 44 44 43 42 41 40 39 37 36 35 34 34 33 32 32 31 31 30 30 30 29 29 29 28 27 26 25 24 24 23 23 23 24 23 24 25 26 26 28 29 29 29 28 27 27 28 29 29 29 29 26 22 21 23 23 22 22 23 24 24 25 25 25 25 24 24 24 25
45 45 45 45 44 44 44 44 44 45 45 46 47 47 48 48 48 48 47 47 46 45 44 43 42 41 40 39 38 37 36 35 35 34 34 33 32 32 32 31 31 31 30 30 29 28 27 26 25 25 25 25 25 25 26 27 27 28 31 31 31 30 30 29 28 29 29 29 29 29 28 25 24 25 25 25 24 24 24 24 25 26 26 26 25 25 25 25
47 47 47 46 46 46 45 45 45 45 45 46 47 47 48 48 48 48 48 47 47 46 46 45 44 43 43 41 39 38 37 37 37 37 36 35 34 34 33 33 33 32 32 31 30 29 29 28 28 27 27 26 27 27 28 29 29 31 32 32 32 32 33 32 31 30 30 29 29 30 28 27 28 28 26 26 25 24 24 24 25 26 26 26 26 26 26 26
50 49 48 48 48 47 47 47 46 46 46 46 47 47 47 48 48 48 48 48 48 47 47 46 45 45 44 42 40 39 39 39 39 39 38 36 36 36 36 35 35 34 33 33 32 31 31 30 29 29 28 27 27 28 30 31 31 32 34 34 34 34 34 34 33 31 31 30 30 29 28 27 29 29 27 27 26 25 25 25 25 25 27 28 28 28 28 28
54 53 51 50 50 49 49 49 49 48 48 48 47 47 47 48 48 48 49 49 48 48 48 47 46 46 45 43 43 42 41 41 41 40 39 39 38 38 37 37 36 36 35 34 33 33 33 32 31 30 29 28 29 31 32 32 33 34 35 36 35 35 35 34 34 33 31 31 30 29 28 27 28 29 27 27 27 26 25 26 26 27 29 30 30 30 30 30
56 56 55 53 52 52 51 51 51 51 50 49 49 49 49 49 49 49 49 49 48 48 49 48 47 47 47 46 45 44 43 42 42 42 42 41 40 40 39 39 38 37 36 36 35 35 34 34 32 30 29 30 32 33 33 34 35 36 37 37 37 36 35 33 34 34 32 32 30 29 29 27 27 29 28 27 27 25 26 27 27 27 29 30 32 32 31 31
57 57 57 57 55 54 53 53 52 52 52 51 51 51 51 51 51 51 50 50 50 50 49 49 49 48 48 48 47 45 44 44 44 44 44 43 42 42 42 41 40 39 38 38 38 37 36 35 32 30 31 34 35 35 34 35 36 37 38 37 37 36 34 33 34 34 34 33 30 29 30 28 27 29 29 28 26 25 26 27 27 27 28 30 31 32 32 32
60 59 58 58 58 57 55 54 54 54 54 53 53 53 53 53 52 52 52 52 51 51 51 51 51 50 49 49 48 47 47 46 45 45 45 45 45 45 44 43 42 40 40 40 39 38 37 36 33 32 34 36 36 36 36 36 38 38 38 37 36 35 34 34 33 33 34 34 31 30 31 29 28 29 29 28 27 25 26 27 27 28 28 29 31 32 32 32
63 62 61 60 60 60 59 57 55 55 55 55 54 55 55 55 54 54 55 55 54 53 53 52 52 52 51 51 50 50 49 48 48 47 47 47 47 47 46 44 43 42 42 42 41 40 38 37 35 36 37 37 36 37 37 38 39 39 38 38 36 34 34 33 32 33 34 35 33 33 35 32 28 29 28 28 28 26 26 28 29 29 29 30 31 32 32 32
65 64 64 63 62 62 62 60 59 57 57 56 56 56 56 56 56 56 57 58 57 55 54 54 54 54 54 53 53 52 51 50 50 49 48 48 48 48 47 46 45 44 44 43 42 42 40 38 39 39 39 38 37 38 38 39 40 40 39 38 36 33 34 34 33 34 34 36 36 37 39 34 28 29 28 28 28 27 28 29 30 31 32 31 31 31 32 32
65 67 66 65 65 64 63 63 62 60 59 58 57 57 57 58 57 58 58 60 61 58 55 56 56 56 55 55 54 53 53 53 51 51 50 49 49 49 48 47 47 45 44 44 44 44 42 41 42 42 40 39 39 39 39 40 40 41 40 38 36 35 35 34 35 36 37 38 37 39 43 37 29 28 28 26 28 28 29 30 31 33 34 33 32 31 32 32
58 64 68 68 67 67 66 64 62 62 62 60 60 59 59 59 58 58 58 61 64 61 58 57 58 58 58 57 56 55 55 55 53 52 52 51 50 50 49 48 47 46 45 44 46 46 44 43 42 43 42 41 41 41 41 40 40 41 40 37 36 35 35 36 36 38 40 41 40 41 43 40 31 26 26 27 28 29 29 30 32 33 34 34 33 32 32 32
54 57 63 68 70 69 68 66 64 63 62 62 62 62 61 61 60 60 59 62 66 64 61 59 59 60 59 58 58 57 58 57 54 54 53 52 51 50 49 49 48 47 45 45 47 48 47 45 44 44 45 45 44 42 40 39 41 42 39 36 36 36 37 38 38 39 41 42 43 42 41 42 35 25 24 28 28 27 27 30 33 33 34 33 33 32 33 32
54 54 57 63 68 70 69 69 67 65 63 63 64 64 63 63 63 62 61 63 68 68 65 63 62 62 62 61 60 59 59 58 56 55 54 53 52 50 50 49 49 48 47 48 50 49 49 48 47 46 45 45 44 41 38 38 40 40 38 36 37 37 38 40 40 41 42 43 46 43 38 41 38 29 28 28 26 25 26 30 33 34 34 34 33 32 32 32
54 54 54 57 62 66 68 69 67 67 67 66 65 65 64 64 64 63 62 65 69 70 69 66 64 64 64 63 63 62 61 60 59 57 55 54 53 51 50 48 48 49 49 50 50 49 50 50 49 46 44 42 40 38 37 36 38 39 38 37 38 39 40 41 41 41 42 45 46 41 37 41 40 33 31 29 25 25 28 31 33 34 35 35 33 32 32 32
54 53 54 56 57 59 64 66 67 67 68 69 69 68 67 67 66 65 66 68 70 71 71 70 67 66 65 65 65 64 63 62 61 59 58 57 55 53 52 50 50 51 51 51 51 51 52 51 50 48 45 42 39 38 37 36 38 39 39 39 39 40 40 41 42 42 44 45 43 40 37 41 41 35 30 30 28 27 29 31 33 35 36 35 33 32 32 31
55 54 53 54 54 55 58 61 64 67 69 70 71 71 71 70 69 70 71 70 69 71 74 73 70 68 67 66 66 65 64 63 62 61 60 59 58 56 55 53 52 52 53 54 53 53 52 51 51 50 47 44 43 41 40 40 41 41 41 40 40 40 42 43 44 45 47 47 43 40 39 42 44 38 33 33 31 30 30 30 32 35 35 33 32 31 31 31
57 56 52 50 51 53 55 56 59 65 69 70 72 72 71 71 74 75 73 70 70 72 75 75 72 71 70 69 68 66 66 65 64 63 62 60 60 58 56 55 52 52 54 54 53 52 51 50 50 50 49 46 44 43 42 42 41 40 41 40 40 43 45 47 47 47 48 48 45 43 43 44 44 39 35 34 33 33 32 30 32 34 33 31 30 30 30 30
56 56 55 53 51 51 52 55 58 62 65 68 71 72 72 74 75 72 69 68 70 71 72 73 72 72 73 72 70 69 68 67 66 65 63 61 61 59 57 56 54 53 52 51 51 51 50 50 49 48 47 44 43 42 41 40 40 41 42 42 43 46 48 49 48 47 47 47 45 45 47 48 44 38 34 33 33 34 33 31 32 33 32 31 30 30 30 30
56 56 56 56 55 52 52 55 58 59 61 62 65 69 72 75 72 65 63 63 65 67 68 70 71 73 74 73 71 69 68 67 66 65 64 63 61 59 57 55 52 51 49 49 50 51 51 51 49 46 45 44 43 42 41 41 42 44 44 44 47 47 47 48 48 49 49 49 47 47 49 48 44 39 36 35 34 33 33 33 34 33 32 30 29 30 30 30
59 59 58 57 57 56 55 56 56 58 61 61 63 68 71 72 67 62 62 61 62 65 65 67 71 72 73 72 69 68 67 65 63 62 62 60 58 56 53 50 49 48 47 48 50 51 51 51 48 46 46 46 46 45 45 44 45 47 47 48 49 45 44 46 48 49 50 51 50 49 49 46 44 42 40 39 35 33 33 35 34 33 31 28 27 28 29 29
61 60 60 60 59 56 56 58 58 58 61 63 66 72 71 66 61 58 60 61 63 65 66 68 70 71 71 70 67 66 65 63 61 59 58 56 55 53 49 48 47 47 47 47 49 50 51 51 50 49 48 47 48 48 48 47 48 50 51 49 47 44 44 47 50 51 51 53 53 51 49 46 44 42 40 39 37 35 35 35 33 32 29 26 25 26 27 28
63 62 61 61 59 57 56 57 59 60 63 66 69 72 68 63 60 56 55 57 60 64 67 68 68 69 69 69 67 66 65 64 61 59 58 57 56 52 48 47 46 47 47 46 46 47 49 51 51 52 51 50 49 50 50 51 52 53 52 48 46 47 49 50 52 53 53 55 55 53 51 49 46 42 38 39 40 39 38 35 32 29 27 26 25 24 25 26
61 62 62 60 58 59 59 57 56 60 65 70 72 71 65 61 61 58 55 55 59 63 67 67 66 68 68 68 67 66 65 64 61 58 57 56 54 50 47 47 46 45 44 44 44 45 47 50 51 52 53 52 51 51 52 53 53 53 51 49 49 51 51 50 51 52 52 54 55 54 53 49 45 42 39 40 41 41 39 34 30 28 27 27 26 24 24 24
62 59 59 59 58 58 60 59 59 62 65 69 71 70 65 60 59 60 60 60 61 65 66 64 64 67 68 67 67 65 64 63 60 58 56 54 52 49 48 48 46 44 44 44 44 43 43 47 49 50 52 54 54 54 54 52 50 49 49 50 50 51 51 50 50 50 50 52 53 54 53 47 43 42 42 42 42 41 38 34 30 28 28 29 29 28 28 27
66 61 56 54 57 59 59 61 65 67 66 65 64 64 64 62 61 62 62 60 60 63 65 63 63 66 66 65 65 64 64 64 62 61 59 56 54 51 50 49 47 45 45 44 42 41 43 46 48 49 50 52 53 53 50 46 46 47 48 50 49 48 49 49 50 50 50 51 52 53 52 45 42 44 44 44 43 40 37 34 31 29 28 29 30 31 33 33
68 66 59 53 55 59 61 66 71 69 64 61 61 61 63 65 65 65 64 62 60 59 60 61 64 65 64 64 65 63 64 64 63 62 61 59 55 52 50 49 48 45 45 44 42 41 43 44 45 47 49 50 49 48 46 45 47 48 49 50 49 48 48 48 50 50 49 50 50 53 53 44 42 47 46 45 45 41 38 34 30 29 29 29 31 32 34 36
66 65 61 58 58 59 62 68 72 69 64 60 57 59 65 67 66 66 66 67 66 61 57 58 62 64 65 65 65 65 65 64 64 64 61 58 55 52 50 50 49 47 46 45 44 41 42 43 45 47 49 48 48 47 47 47 48 50 51 52 50 49 46 46 48 49 51 52 51 55 55 45 41 47 47 45 44 42 39 35 31 30 30 31 32 34 36 37
63 59 58 61 64 63 65 68 69 68 65 59 53 55 62 65 66 67 68 69 69 67 62 58 58 60 62 62 63 64 63 62 62 61 59 57 55 53 52 52 52 50 47 46 46 45 45 47 48 49 49 48 48 48 48 48 50 51 50 48 47 46 45 47 50 52 55 56 54 57 56 47 44 48 46 43 43 42 41 37 34 33 33 33 34 36 38 40
65 60 58 61 63 64 67 69 69 68 64 59 55 53 55 60 65 67 67 67 67 68 67 63 58 57 57 59 61 61 60 59 57 56 55 55 54 53 53 54 53 51 49 49 48 46 46 47 48 49 49 49 49 50 50 50 49 47 45 44 45 45 46 50 53 53 55 55 53 56 56 49 47 48 46 44 42 40 40 38 37 37 35 34 35 36 38 40
70 67 65 63 63 64 67 67 68 69 67 63 61 57 53 56 60 63 64 65 65 66 68 66 61 59 58 59 61 61 61 59 57 56 56 55 55 55 56 56 55 53 52 52 52 50 50 50 50 50 50 50 50 50 48 46 45 44 45 45 46 47 50 52 52 52 54 52 51 54 53 49 47 47 47 45 42 39 39 39 39 39 38 37 37 38 39 39
74 73 70 66 65 66 68 67 67 68 68 66 65 61 58 56 55 57 61 64 64 63 64 65 63 62 62 62 63 63 63 61 61 60 60 59 59 59 58 57 56 56 54 54 55 54 54 55 54 53 53 52 50 48 47 47 48 48 49 49 50 52 54 54 54 54 53 51 52 52 50 48 48 46 45 43 41 41 41 40 40 40 39 40 41 41 41 41
77 77 74 70 67 66 67 68 67 66 64 64 64 62 60 56 53 54 57 59 61 61 61 62 62 63 64 64 64 65 64 63 64 64 62 62 62 62 61 60 59 59 58 56 55 55 55 56 55 54 53 50 48 48 50 51 52 52 52 53 53 54 55 56 57 54 50 51 53 51 48 48 47 44 42 42 43 43 42 41 41 42 42 43 44 44 44 44
78 79 77 74 72 70 68 67 66 64 63 65 65 62 60 57 56 56 54 52 55 58 58 59 60 60 60 61 63 64 63 62 62 62 62 62 64 65 65 63 61 60 59 58 56 54 55 56 55 54 53 49 47 50 52 53 53 54 55 55 54 54 55 56 56 52 50 53 54 49 48 50 48 44 43 43 44 43 43 44 45 46 47 48 48 48 48 48
78 79 78 77 77 75 71 67 64 61 60 63 66 64 62 59 57 57 54 51 53 55 56 58 57 55 56 58 59 61 61 60 59 59 58 59 61 62 63 63 61 59 59 59 57 56 57 58 56 56 55 52 50 53 54 55 56 56 56 56 55 55 55 56 54 51 52 55 52 49 51 50 47 46 44 43 43 44 46 49 50 50 51 52 52 52 53 53
78 78 77 79 82 81 77 72 67 61 58 59 61 63 63 61 58 57 56 54 53 53 55 56 54 53 55 56 57 58 57 57 57 56 54 55 56 57 58 59 58 57 57 57 56 56 57 57 55 55 57 54 52 53 55 56 57 57 57 56 55 55 56 57 55 52 54 54 50 50 51 48 45 44 43 44 46 47 49 51 52 53 54 55 55 56 56 57
78 79 79 80 83 85 83 79 74 69 64 58 55 57 61 62 59 57 58 59 56 54 53 52 49 51 54 56 57 56 52 51 53 52 52 54 55 54 53 53 53 53 53 53 55 55 55 56 54 55 58 55 51 52 54 54 56 58 58 54 52 54 56 56 53 52 53 53 50 51 51 46 43 44 44 46 49 51 51 51 52 54 55 56 57 58 58 58
77 79 81 81 83 85 85 82 80 79 72 61 51 50 55 59 60 60 61 63 62 60 57 53 50 52 55 56 56 53 49 49 50 50 51 52 52 52 52 52 52 53 52 52 53 54 55 55 54 55 58 56 51 52 52 52 55 57 53 49 50 54 55 54 54 53 53 52 53 54 52 47 47 49 49 49 51 51 52 52 53 55 56 57 57 58 58 57
Wind_Direction
218 218 218 218 218 218 218 218 219 218 217 214 212 208 205 203 202 203 205 205 205 204 202 198 196 194 194 194 194 193 190 187 187 186 185 181 178 177 177 180 183 189 196 202 210 214 219 223 227 231 235 242 247 254 260 266 271 276 282 289 294 297 300 304 306 307 310 307 305 305 306 309 307 307 310 309 306 286 269 268 264 265 273 281 287 289 292 296
221 220 219 219 219 218 218 219 219 218 216 214 211 208 205 204 204 206 207 208 207 206 203 200 198 198 198 198 200 200 197 197 197 195 194 193 190 190 190 194 198 204 212 220 227 232 236 238 242 245 248 252 257 262 266 271 275 279 285 291 293 295 300 302 302 306 310 308 307 306 306 310 306 304 308 307 306 290 267 262 261 267 274 279 284 290 294 294
225 224 222 221 220 219 219 220 220 218 216 214 211 208 206 205 206 208 209 209 209 207 205 203 202 201 202 203 204 205 204 204 204 203 204 203 202 203 204 208 213 220 227 236 243 247 250 252 254 256 257 259 263 266 269 273 277 281 286 289 291 294 299 300 302 307 311 309 307 305 306 306 301 302 306 303 301 290 261 256 263 272 277 278 283 290 294 295
229 227 226 224 222 221 221 221 220 218 216 214 210 208 206 206 207 209 210 211 210 209 207 206 205 205 205 206 208 208 208 210 210 211 211 211 211 212 215 219 224 230 238 246 253 257 260 261 261 262 263 264 266 269 271 274 278 281 285 287 288 294 299 301 305 308 310 309 305 304 303 301 299 301 301 299 296 284 262 258 266 274 278 280 283 288 293 295
230 229 228 226 224 223 222 222 221 219 216 214 210 208 207 207 208 210 211 212 212 211 210 208 208 208 208 209 211 211 211 214 215 216 217 217 218 220 223 226 230 235 241 248 255 260 263 264 265 265 266 267 269 270 271 274 276 279 283 284 285 294 300 302 306 309 309 308 305 301 299 299 299 299 296 294 289 280 268 261 264 270 275 279 282 287 292 295
229 229 228 227 225 224 223 222 221 219 217 214 211 209 208 208 209 210 212 212 213 213 212 211 211 211 212 213 214 214 214 218 220 221 222 223 224 226 229 231 234 237 241 247 255 260 264 267 268 267 267 268 270 270 271 273 275 278 281 281 284 294 300 302 305 308 308 306 303 298 297 298 297 297 295 291 286 281 271 262 260 264 269 273 278 284 289 291
228 228 228 227 225 224 224 223 222 220 217 215 212 210 209 209 210 211 212 213 213 214 214 214 214 214 215 216 217 218 218 222 225 225 226 228 230 231 234 237 238 241 244 249 256 262 268 271 269 268 269 269 269 270 271 272 274 277 280 282 286 293 299 302 304 306 305 303 300 297 296 296 295 295 293 290 286 281 273 264 259 259 263 267 273 278 282 284
228 228 227 226 225 225 224 223 222 220 218 215 212 211 210 210 211 212 213 213 214 215 215 216 216 216 217 218 220 221 221 224 227 227 229 231 233 235 238 240 241 244 248 252 257 263 269 270 271 273 274 272 271 273 273 273 276 277 280 284 288 293 299 302 303 303 302 300 297 295 295 294 295 294 292 290 284 279 275 269 266 265 266 267 270 274 277 279
227 227 227 226 225 225 224 224 222 221 218 216 213 212 211 212 212 213 214 214 215 216 216 217 218 218 219 220 222 223 223 225 229 230 232 234 236 238 240 242 244 247 250 253 258 262 268 271 275 279 278 276 275 276 276 277 278 277 280 285 289 293 298 301 302 301 300 298 295 294 293 294 293 292 290 284 279 279 279 275 274 273 271 271 272 273 275 276
227 227 226 226 225 224 224 224 223 221 219 217 214 213 213 213 213 214 215 215 216 217 218 219 220 220 221 222 223 225 225 227 230 232 235 237 239 241 243 245 247 250 253 255 258 262 267 273 277 280 281 280 278 278 278 278 279 279 281 286 290 294 297 300 300 299 299 296 294 293 292 293 292 289 284 278 276 279 280 278 275 273 272 273 274 275 275 276
227 226 226 225 225 224 223 223 223 222 220 218 216 214 214 214 215 215 216 217 218 218 219 220 221 222 223 224 225 227 227 230 233 234 237 239 242 244 245 247 249 252 255 257 260 263 267 272 277 280 282 281 281 281 280 279 279 281 283 287 291 293 297 299 298 297 296 294 294 292 292 292 289 284 281 278 278 276 276 276 275 273 274 274 275 276 277 278
228 227 226 225 224 223 223 222 222 221 220 219 217 216 215 215 216 217 218 219 219 220 221 222 223 225 226 227 228 230 231 233 235 236 238 240 243 245 247 249 251 253 256 258 261 264 267 271 276 280 282 283 283 281 280 280 281 283 285 289 291 292 295 297 296 296 295 294 293 291 290 290 285 282 278 278 277 276 275 274 274 275 275 275 276 276 277 278
227 228 227 225 224 223 222 221 221 220 220 219 218 217 217 217 218 219 220 221 222 222 224 225 226 227 228 229 231 232 234 236 237 238 240 242 244 246 248 250 253 254 256 259 262 264 267 271 275 279 283 284 283 281 282 283 284 285 286 288 289 290 293 295 295 297 297 296 292 288 287 285 283 281 278 276 276 276 275 274 274 275 276 276 277 276 277 277
227 227 227 226 225 224 222 221 220 219 219 218 218 218 218 218 220 221 221 222 224 225 226 227 228 229 230 232 233 235 236 238 240 241 242 243 245 247 250 251 253 255 257 259 261 264 267 271 275 279 282 284 284 283 284 285 285 286 287 286 287 289 292 294 296 297 297 295 290 286 286 283 281 281 279 277 277 276 276 277 277 278 277 277 276 275 275 275
227 227 227 227 226 225 224 222 221 220 219 218 218 218 219 220 221 222 223 224 225 227 228 229 230 231 232 234 235 237 238 240 242 243 244 245 247 249 250 252 254 256 258 259 262 265 268 271 275 279 281 283 284 284 285 285 285 286 285 285 287 289 291 292 294 294 293 290 287 285 285 283 281 281 281 281 279 278 278 280 280 280 279 278 276 274 273 272
229 228 228 227 227 226 225 224 223 222 220 220 219 219 220 221 222 223 225 226 227 229 230 231 232 233 234 236 237 238 240 242 244 245 246 247 249 250 252 253 255 257 258 260 263 265 268 271 274 278 280 282 284 285 285 284 283 283 283 286 290 291 292 292 290 288 287 286 285 283 283 283 282 282 283 283 282 281 281 281 281 280 280 278 276 273 271 271
229 229 229 228 228 227 227 226 226 225 224 223 222 221 222 223 224 225 226 228 229 230 231 232 233 234 235 237 238 240 242 243 245 246 248 249 250 252 253 254 256 257 259 261 263 266 268 271 274 276 279 282 283 285 284 282 281 282 284 288 291 292 291 290 288 287 285 283 280 279 281 284 285 285 286 285 283 281 280 279 279 280 280 278 275 273 272 271
230 230 230 229 229 228 228 228 228 227 227 226 225 225 226 226 227 227 228 229 230 232 233 233 234 236 236 237 239 241 242 243 245 247 249 250 252 253 254 255 257 258 260 262 263 266 268 270 273 276 280 283 282 281 281 280 281 284 288 289 290 290 290 289 288 286 283 279 277 275 277 280 283 287 288 286 285 284 284 283 281 280 278 277 275 274 273 273
229 230 230 229 229 229 229 229 229 230 229 229 229 229 229 230 230 230 231 231 232 234 235 235 236 237 237 238 240 241 242 244 246 249 250 251 253 254 255 256 258 259 260 262 263 265 267 269 272 277 282 281 279 278 279 281 284 286 288 289 290 289 288 289 287 283 278 276 276 276 276 278 282 285 285 285 286 287 287 284 282 281 279 278 277 275 273 273
230 230 230 230 230 230 230 230 231 231 231 231 231 231 232 232 232 233 233 234 235 236 236 236 237 238 238 238 240 242 243 245 248 250 251 252 254 255 256 256 257 259 261 262 263 264 267 269 274 279 280 278 277 278 280 282 285 286 287 289 290 289 288 287 283 280 277 274 273 274 275 278 281 282 282 282 285 286 285 284 284 283 281 280 279 277 276 274
232 232 231 231 231 230 230 231 231 232 232 232 233 234 234 234 234 235 235 236 236 237 238 237 237 238 239 239 241 243 244 245 248 250 252 254 255 256 257 257 258 260 261 262 263 265 267 270 275 278 276 275 277 278 280 283 285 286 286 288 288 287 286 283 280 279 277 275 273 273 274 277 279 279 280 281 283 284 284 285 286 285 283 281 280 279 278 277
233 233 233 233 232 232 231 231 232 232 232 233 234 236 236 236 236 236 237 237 237 238 238 239 239 238 240 241 242 244 245 246 248 250 252 254 255 257 257 258 259 261 262 262 264 266 268 270 274 275 274 275 277 279 282 283 284 285 285 285 284 283 282 280 279 278 277 277 277 277 277 279 279 278 279 281 282 283 284 285 285 285 285 283 280 278 277 277
233 233 233 233 234 233 233 233 233 233 233 234 235 236 237 238 238 238 238 238 238 238 239 239 240 240 240 242 244 245 246 247 248 249 251 253 255 257 258 259 260 262 263 263 265 266 268 271 273 273 274 275 277 279 282 283 284 284 282 281 280 280 280 279 278 276 277 278 280 280 279 279 279 277 277 279 281 281 281 281 282 283 284 282 281 280 278 277
234 234 233 233 234 234 234 234 233 234 235 235 236 237 238 238 239 239 240 240 239 238 239 240 241 241 241 243 244 246 247 247 249 250 251 253 255 257 259 260 261 262 264 265 267 267 268 271 272 272 274 275 277 279 281 283 283 282 280 279 278 278 278 278 277 277 277 278 280 281 280 278 277 275 273 275 279 279 277 278 281 284 284 283 282 280 278 277
237 235 234 233 234 234 234 234 234 235 236 237 238 239 239 239 240 240 242 243 240 237 239 241 242 243 243 244 245 247 249 249 250 251 252 254 255 257 258 260 261 263 266 267 268 268 269 271 272 273 274 276 277 279 280 281 280 279 278 278 278 278 277 277 277 277 277 277 278 280 280 280 277 273 272 273 275 275 275 278 282 285 286 285 283 279 277 277
241 238 236 235 234 234 234 235 234 235 236 237 238 239 240 240 241 242 243 245 242 237 238 241 243 244 244 246 247 248 249 249 250 252 253 254 255 257 259 260 262 264 265 267 268 268 268 270 272 274 275 275 276 278 279 279 277 276 276 277 277 276 276 276 276 277 277 277 277 276 278 281 277 270 272 273 272 272 276 281 284 285 287 287 285 280 276 275
245 243 239 237 235 235 235 235 234 235 236 237 238 239 240 241 242 242 244 246 243 238 238 239 241 244 245 246 248 248 249 249 250 251 252 254 255 256 258 259 261 263 265 267 267 268 269 270 271 272 274 275 276 277 277 275 274 275 275 275 275 274 275 275 275 275 275 276 276 274 277 280 278 272 269 267 269 276 284 286 286 287 289 290 287 280 274 272
247 247 244 240 237 236 235 235 235 235 236 238 239 239 240 240 242 242 243 246 243 239 239 239 239 242 244 245 246 248 249 249 250 251 252 253 255 256 257 259 261 263 264 266 267 269 269 270 270 271 273 275 277 276 274 272 272 273 274 273 273 273 273 274 274 274 275 275 274 274 278 281 279 276 270 266 271 283 288 287 288 290 291 291 288 281 273 270
247 247 246 244 241 238 237 236 236 237 237 238 239 240 240 240 241 242 243 244 242 241 241 240 239 241 243 245 246 248 249 250 251 252 253 254 255 257 258 259 261 262 263 265 267 268 268 269 270 271 272 273 273 273 272 271 271 271 272 271 271 272 273 275 275 276 277 275 274 277 280 281 280 276 272 273 280 287 288 288 291 292 292 292 289 281 272 267
247 247 246 244 243 241 239 238 237 237 238 239 239 239 239 240 240 241 241 242 243 244 245 244 242 242 243 245 247 248 249 251 252 253 254 255 256 257 258 259 260 261 263 264 266 267 269 270 271 272 271 271 270 270 270 269 269 269 270 270 271 273 274 276 276 277 276 274 276 281 283 280 278 276 275 279 283 285 287 289 291 293 295 294 289 280 270 265
244 245 245 245 244 242 241 239 238 238 238 239 239 239 239 239 239 239 241 243 244 246 248 248 247 245 245 246 247 249 250 251 252 253 254 256 256 257 258 259 261 262 264 265 267 268 269 270 270 271 270 268 267 266 266 266 267 268 269 271 273 274 273 273 273 274 274 275 279 283 283 278 275 276 279 282 283 285 286 290 293 295 295 293 287 279 270 264
240 241 243 244 244 243 241 239 238 237 238 238 239 239 239 238 238 239 242 244 245 247 248 250 250 249 248 247 247 248 249 251 252 253 254 255 256 258 259 260 262 264 265 267 268 267 267 267 267 268 268 267 267 267 267 266 267 267 268 269 271 271 272 271 272 273 275 278 281 282 280 275 271 274 279 282 283 284 287 292 295 294 293 288 281 274 268 262
238 240 241 241 242 243 241 240 238 237 238 240 240 240 239 238 239 242 245 245 247 249 251 252 253 252 252 250 249 248 248 250 251 252 254 255 257 258 260 261 262 264 266 267 267 267 266 265 265 266 269 270 270 268 267 266 265 264 264 266 268 269 271 273 276 278 278 279 279 278 276 273 272 276 280 280 281 283 289 294 293 290 287 281 274 269 265 260
239 242 243 242 241 240 240 241 241 240 240 242 244 245 242 240 241 245 246 246 248 250 252 253 254 253 253 253 252 251 251 251 252 253 254 255 257 258 260 261 262 264 264 264 264 265 265 264 264 266 267 267 267 266 265 263 263 264 265 265 266 268 272 276 279 279 277 277 276 275 274 273 276 279 280 278 278 283 289 291 290 286 282 276 271 267 263 260
243 244 243 242 240 237 237 239 241 242 243 243 244 247 246 243 242 245 246 246 248 250 251 252 253 253 254 254 254 254 254 253 253 254 255 256 256 257 258 259 260 260 261 261 262 263 264 265 265 265 264 263 263 263 262 262 263 264 265 265 267 270 273 274 275 276 277 277 276 275 275 276 278 278 278 278 280 284 286 286 286 284 280 276 270 265 262 260
244 243 242 241 239 238 237 238 239 240 243 243 242 244 246 245 241 243 247 247 248 250 251 253 254 255 257 257 257 256 256 256 255 255 255 256 256 255 255 256 257 259 260 262 263 262 263 264 263 263 261 260 260 260 260 261 262 263 263 265 269 271 270 270 272 274 276 276 276 276 278 279 279 276 275 279 282 284 284 284 285 283 280 274 267 264 262 260
244 243 242 241 240 240 239 238 238 240 243 244 243 244 246 246 242 242 245 245 247 249 250 252 254 256 257 258 258 257 257 257 256 256 255 255 255 254 253 254 256 259 261 262 262 261 260 261 260 260 259 258 257 258 258 260 261 262 264 267 268 268 268 270 272 274 275 275 276 276 276 277 277 275 276 280 282 283 284 285 285 281 274 267 265 264 263 262
242 243 243 241 240 240 240 239 239 241 244 245 245 245 245 245 243 243 244 244 246 248 249 249 251 253 254 255 256 256 256 256 255 255 254 253 251 249 250 253 255 257 257 258 259 259 258 259 260 260 258 256 255 256 257 258 260 263 265 268 268 269 270 271 272 273 274 274 274 273 273 273 275 277 280 280 281 282 283 285 283 276 266 261 261 263 263 263
237 240 241 241 239 238 238 238 239 239 241 243 245 245 244 243 242 243 244 246 247 249 249 248 249 252 252 253 254 255 256 256 255 254 252 251 249 247 248 251 251 251 253 255 257 258 257 257 259 261 258 255 254 255 257 259 261 264 266 267 268 269 270 269 270 270 271 272 272 273 273 273 275 279 280 280 281 281 282 284 282 274 266 261 259 260 263 264
235 236 235 237 239 239 236 236 237 238 239 241 242 243 244 242 241 241 243 246 249 250 250 247 247 249 251 252 253 253 255 256 256 255 253 252 250 248 247 247 247 248 253 256 256 255 255 255 258 260 260 258 258 259 261 262 262 261 262 262 263 264 265 266 266 267 267 269 272 276 277 276 277 278 277 278 279 280 282 282 278 272 266 262 260 261 263 264
235 236 231 228 233 236 234 233 235 237 239 240 238 239 243 243 241 240 240 243 247 250 250 247 245 247 249 252 253 253 254 256 256 256 254 252 251 249 247 246 246 249 254 257 255 254 255 256 257 259 260 260 261 261 262 260 258 257 257 257 258 259 259 261 264 267 270 273 276 278 277 274 274 276 276 278 280 282 281 279 275 269 264 261 261 261 262 262
232 235 232 226 228 232 232 233 234 235 238 241 239 237 240 242 241 240 240 241 244 247 249 247 245 245 246 248 250 252 253 254 254 254 254 252 250 248 247 246 247 250 255 256 253 252 253 252 253 256 258 259 260 260 260 258 258 256 256 257 258 259 262 266 271 275 276 275 274 272 271 272 274 274 276 279 281 282 280 277 273 267 262 259 258 259 261 262
228 231 231 228 227 231 233 235 236 236 237 239 240 238 237 239 239 240 239 240 242 245 248 249 248 246 245 246 248 249 251 253 253 252 251 250 248 246 245 247 249 252 254 253 251 251 251 250 252 255 257 258 259 260 260 258 257 257 259 262 264 266 269 272 275 275 272 270 269 268 269 273 275 274 275 277 278 278 277 276 273 269 265 260 257 257 259 261
227 228 231 231 230 232 236 238 239 241 240 239 240 241 240 239 239 239 239 239 240 242 244 246 247 247 246 246 247 248 249 252 252 249 249 249 247 245 245 248 250 252 253 253 252 252 252 251 252 253 253 254 255 257 258 259 261 265 269 268 265 265 268 272 274 272 269 268 267 265 268 273 274 274 275 274 274 274 274 275 274 271 268 263 260 259 259 260
225 226 229 233 234 235 237 239 241 244 245 244 244 244 243 242 239 238 239 239 238 239 240 242 244 246 246 247 248 250 251 252 252 251 249 249 248 247 248 248 249 250 251 252 253 253 251 251 250 250 250 251 254 258 261 265 268 270 268 265 263 264 268 273 273 269 268 267 263 263 270 274 272 272 273 274 275 274 271 271 271 271 271 270 268 266 265 265
224 225 226 229 233 236 237 238 241 244 246 248 250 249 247 245 243 240 240 240 238 238 239 240 242 244 245 245 247 250 250 251 251 250 250 250 250 250 251 250 250 250 252 253 254 254 253 253 252 252 252 253 256 260 262 264 263 263 263 264 265 267 270 272 269 267 269 268 265 267 271 271 270 270 272 274 274 271 269 269 270 272 274 275 275 275 274 273
224 224 224 225 228 233 235 236 238 241 244 247 249 250 249 247 244 243 244 243 240 240 240 240 241 242 243 244 246 248 249 249 250 250 250 251 252 252 253 253 253 253 254 255 256 257 258 258 258 258 259 258 259 261 260 260 261 262 263 263 264 267 269 268 266 268 269 266 267 270 269 268 270 270 269 269 268 268 270 273 275 276 277 278 279 280 279 278
224 224 223 223 225 229 232 234 236 240 242 243 243 243 245 243 241 242 246 245 241 240 240 240 240 242 243 245 246 247 248 249 251 251 251 252 252 252 253 255 256 257 258 259 260 261 262 262 262 264 264 262 261 261 260 260 260 261 262 262 264 266 266 265 266 268 266 265 268 270 266 265 267 265 263 265 267 270 274 275 276 277 278 279 280 281 281 279
224 224 223 223 224 227 229 231 235 237 237 238 238 238 240 241 241 243 245 245 242 241 242 242 242 242 244 245 246 247 248 249 250 251 253 254 254 254 255 256 257 259 260 261 262 263 263 264 264 265 265 264 263 262 261 260 260 260 260 261 263 264 264 264 263 263 263 265 267 266 264 265 267 265 264 265 267 271 273 273 274 276 278 280 280 281 281 279
224 223 223 225 225 226 226 227 229 230 228 230 234 236 238 240 242 243 243 244 244 243 244 245 245 245 245 245 246 247 247 249 251 252 253 255 255 255 256 257 257 258 259 259 260 260 260 262 262 263 263 262 261 262 262 261 261 260 258 259 261 262 261 261 260 261 263 264 266 266 265 267 268 268 267 266 267 269 269 271 274 276 278 280 280 280 280 279
225 222 223 226 226 225 225 224 224 226 224 222 226 233 236 239 241 243 244 244 245 245 245 246 245 246 246 245 247 247 247 250 253 253 253 253 253 253 254 254 254 254 254 256 257 257 257 259 259 260 260 260 260 262 262 263 263 260 256 256 259 261 262 263 263 263 263 264 264 264 265 268 269 269 267 265 266 268 270 273 276 277 278 279 279 279 278 277
225 224 223 226 228 227 226 225 224 225 225 221 222 229 234 237 239 241 242 243 244 246 249 249 247 246 246 245 246 247 247 249 252 251 250 250 251 251 251 250 249 250 251 252 254 256 256 257 258 258 260 260 259 260 260 260 260 258 256 256 259 262 264 266 264 263 264 264 263 262 264 267 267 265 263 264 267 270 273 274 275 276 277 276 276 276 276 275
Height
5827 5829 5831 5833 5834 5836 5838 5840 5841 5843 5844 5846 5848 5849 5851 5852 5854 5855 5857 5858 5859 5860 5861 5862 5863 5864 5865 5866 5867 5868 5869 5870 5871 5872 5873 5873 5874 5875 5876 5877 5878 5878 5879 5880 5881 5881 5882 5883 5883 5884 5885 5885 5886 5886 5886 5886 5886 5886 5887 5887 5887 5887 5887 5887 5887 5887 5887 5886 5886 5886 5886 5886 5884 5884 5885 5884 5885 5884 5883 5883 5883 5883 5883 5884 5884 5883 5883 5883
5825 5826 5828 5830 5832 5834 5835 5837 5839 5841 5842 5844 5846 5847 5849 5851 5852 5854 5855 5856 5858 5859 5860 5861 5862 5863 5864 5865 5866 5867 5868 5869 5870 5871 5872 5873 5873 5874 5875 5876 5877 5878 5878 5879 5880 5880 5881 5882 5882 5883 5884 5884 5885 5885 5885 5885 5885 5885 5885 5885 5885 5886 5886 5885 5885 5886 5885 5885 5885 5884 5884 5885 5883 5883 5883 5883 5883 5883 5882 5882 5881 5881 5882 5882 5882 5882 5882 5882
5822 5824 5826 5827 5829 5831 5833 5835 5836 5838 5840 5842 5843 5845 5847 5849 5850 5852 5853 5855 5856 5857 5858 5860 5860 5861 5862 5864 5865 5866 5867 5868 5869 5870 5871 5872 5872 5873 5874 5875 5876 5877 5877 5878 5879 5879 5880 5881 5881 5882 5882 5883 5883 5884 5884 5883 5884 5884 5884 5884 5883 5884 5884 5883 5883 5884 5884 5884 5883 5883 5883 5883 5882 5881 5882 5882 5882 5882 5881 5880 5879 5880 5880 5880 5880 5880 5880 5880
5819 5821 5823 5825 5827 5828 5830 5832 5834 5835 5837 5839 5841 5843 5845 5847 5848 5850 5851 5853 5854 5856 5857 5858 5859 5860 5861 5862 5863 5865 5866 5867 5868 5869 5869 5870 5871 5872 5873 5874 5875 5875 5876 5877 5877 5878 5879 5879 5880 5881 5881 5882 5882 5882 5882 5882 5882 5882 5882 5882 5882 5882 5882 5881 5881 5882 5882 5882 5881 5881 5881 5881 5881 5881 5880 5880 5880 5880 5880 5879 5878 5878 5878 5878 5878 5878 5878 5878
5816 5818 5820 5822 5824 5826 5827 5829 5831 5833 5834 5836 5838 5840 5842 5844 5846 5847 5849 5851 5852 5854 5855 5856 5857 5859 5860 5861 5862 5864 5865 5866 5867 5867 5868 5869 5870 5871 5872 5872 5873 5874 5875 5876 5876 5877 5877 5878 5879 5879 5879 5880 5881 5880 5880 5880 5880 5881 5881 5880 5880 5881 5880 5879 5880 5880 5880 5880 5880 5879 5879 5879 5879 5879 5879 5878 5878 5879 5879 5878 5877 5877 5877 5876 5876 5876 5876 5876
5813 5815 5817 5819 5821 5823 5825 5826 5828 5830 5832 5834 5836 5837 5839 5841 5843 5845 5847 5848 5850 5852 5853 5854 5856 5857 5858 5859 5861 5862 5864 5864 5865 5866 5867 5868 5869 5870 5870 5871 5872 5873 5874 5874 5875 5875 5876 5877 5877 5877 5878 5878 5879 5878 5879 5879 5879 5879 5879 5878 5879 5879 5878 5878 5878 5878 5878 5878 5878 5877 5877 5877 5877 5877 5877 5876 5876 5876 5877 5877 5876 5876 5875 5875 5875 5875 5874 5874
5809 5811 5813 5816 5818 5820 5822 5823 5825 5827 5829 5831 5833 5835 5837 5839 5840 5842 5844 5846 5848 5849 5851 5852 5854 5855 5856 5858 5859 5860 5862 5863 5864 5865 5865 5866 5867 5868 5869 5870 5871 5872 5872 5873 5873 5874 5874 5875 5875 5875 5876 5877 5876 5876 5877 5877 5877 5877 5877 5876 5877 5878 5877 5876 5876 5876 5876 5876 5876 5875 5875 5875 5875 5875 5875 5874 5874 5873 5874 5875 5874 5874 5874 5874 5873 5873 5873 5873
5805 5808 5810 5812 5814 5816 5818 5820 5822 5824 5826 5828 5830 5832 5834 5836 5838 5839 5841 5843 5845 5847 5848 5850 5852 5853 5854 5856 5857 5858 5860 5861 5862 5863 5864 5865 5866 5867 5868 5868 5869 5870 5871 5871 5872 5872 5873 5873 5873 5873 5874 5874 5874 5874 5875 5875 5875 5876 5875 5875 5875 5876 5875 5874 5874 5874 5874 5874 5873 5873 5873 5873 5873 5873 5873 5872 5871 5870 5871 5872 5872 5872 5872 5872 5872 5871 5871 5871
5802 5804 5806 5808 5810 5813 5815 5817 5819 5821 5823 5825 5827 5829 5831 5833 5835 5837 5839 5841 5842 5844 5846 5848 5849 5851 5852 5854 5855 5856 5858 5859 5859 5861 5862 5863 5864 5865 5866 5867 5868 5868 5869 5869 5870 5870 5870 5871 5871 5871 5872 5872 5872 5872 5872 5873 5873 5873 5873 5873 5873 5873 5874 5873 5872 5872 5872 5871 5871 5871 5871 5871 5871 5871 5871 5870 5869 5868 5869 5869 5869 5870 5869 5869 5869 5869 5869 5868
5798 5800 5802 5804 5807 5809 5811 5814 5816 5818 5820 5822 5824 5826 5828 5830 5832 5834 5836 5838 5840 5841 5843 5845 5847 5848 5850 5851 5853 5853 5855 5856 5857 5859 5860 5861 5862 5863 5864 5865 5865 5866 5867 5867 5868 5868 5868 5869 5869 5870 5870 5870 5870 5870 5870 5871 5871 5871 5871 5872 5871 5871 5871 5871 5870 5869 5869 5868 5868 5868 5869 5869 5869 5869 5869 5868 5867 5867 5866 5867 5867 5867 5867 5867 5867 5866 5866 5866
5794 5796 5798 5801 5803 5805 5808 5810 5813 5815 5817 5819 5821 5823 5825 5827 5829 5831 5833 5835 5837 5839 5841 5842 5844 5846 5847 5849 5850 5851 5853 5854 5854 5856 5857 5858 5859 5860 5861 5862 5863 5864 5864 5865 5865 5866 5866 5867 5867 5868 5868 5868 5868 5868 5868 5868 5869 5869 5869 5869 5869 5869 5869 5869 5868 5867 5867 5866 5865 5865 5866 5867 5867 5867 5866 5865 5865 5865 5864 5864 5864 5864 5864 5864 5864 5864 5863 5863
5791 5793 5795 5797 5799 5802 5804 5806 5809 5811 5813 5815 5818 5820 5822 5824 5826 5828 5830 5832 5834 5836 5838 5840 5841 5843 5845 5846 5847 5848 5850 5851 5852 5854 5855 5856 5857 5858 5859 5860 5861 5861 5862 5862 5863 5864 5864 5865 5865 5865 5866 5866 5866 5866 5866 5866 5866 5866 5867 5867 5866 5866 5867 5866 5865 5864 5864 5864 5863 5862 5863 5864 5864 5864 5864 5863 5863 5863 5862 5862 5862 5862 5862 5862 5862 5861 5861 5860
5788 5790 5792 5794 5796 5798 5800 5802 5805 5807 5809 5812 5814 5816 5818 5821 5823 5825 5827 5829 5831 5833 5835 5837 5839 5840 5842 5843 5845 5846 5848 5848 5850 5851 5852 5853 5854 5855 5856 5857 5858 5859 5859 5860 5861 5861 5862 5862 5863 5863 5863 5864 5864 5864 5863 5863 5864 5863 5864 5864 5863 5863 5865 5864 5863 5862 5861 5861 5861 5860 5861 5862 5861 5861 5861 5861 5861 5861 5860 5860 5860 5860 5860 5860 5859 5859 5859 5858
5784 5786 5789 5791 5793 5795 5797 5799 5801 5803 5805 5807 5810 5812 5815 5817 5820 5822 5824 5826 5828 5830 5832 5834 5836 5837 5839 5841 5842 5843 5845 5846 5847 5848 5850 5851 5851 5853 5853 5854 5855 5856 5857 5857 5858 5858 5859 5860 5860 5861 5861 5861 5861 5861 5861 5861 5861 5861 5860 5861 5860 5861 5862 5862 5861 5860 5858 5858 5857 5856 5858 5860 5859 5858 5859 5859 5859 5858 5858 5858 5858 5858 5857 5857 5857 5856 5856 5855
5780 5783 5785 5787 5789 5791 5793 5796 5798 5799 5801 5804 5806 5808 5811 5813 5816 5818 5820 5822 5825 5826 5828 5831 5832 5834 5836 5838 5839 5840 5842 5843 5844 5845 5847 5848 5849 5850 5851 5851 5852 5853 5854 5854 5855 5856 5857 5857 5858 5858 5858 5858 5858 5859 5859 5858 5858 5858 5857 5857 5857 5858 5859 5859 5859 5857 5856 5855 5854 5853 5854 5857 5856 5855 5856 5856 5856 5856 5856 5855 5855 5855 5854 5854 5854 5854 5853 5853
5777 5779 5781 5783 5786 5788 5790 5792 5794 5796 5798 5800 5802 5805 5807 5809 5812 5814 5816 5818 5821 5822 5825 5827 5829 5831 5833 5834 5836 5838 5839 5840 5841 5842 5843 5845 5846 5847 5848 5849 5849 5850 5851 5852 5852 5853 5854 5854 5855 5855 5855 5855 5855 5856 5856 5855 5855 5854 5853 5853 5854 5854 5855 5856 5856 5855 5853 5852 5851 5850 5851 5853 5853 5852 5853 5853 5853 5853 5853 5853 5852 5852 5851 5851 5851 5851 5850 5850
5772 5775 5777 5779 5782 5784 5787 5789 5791 5793 5795 5797 5799 5801 5803 5805 5808 5810 5812 5814 5816 5818 5820 5822 5825 5827 5829 5831 5833 5835 5836 5837 5837 5838 5839 5842 5843 5844 5845 5845 5846 5847 5848 5849 5850 5850 5851 5851 5852 5852 5852 5853 5853 5853 5852 5851 5851 5851 5850 5851 5851 5851 5851 5851 5851 5851 5850 5849 5849 5848 5848 5849 5848 5849 5850 5850 5850 5850 5850 5850 5850 5849 5848 5848 5848 5848 5847 5847
5767 5770 5772 5775 5777 5780 5782 5785 5787 5789 5791 5793 5796 5798 5800 5802 5803 5805 5808 5810 5812 5814 5816 5819 5821 5823 5825 5828 5830 5831 5832 5833 5833 5834 5836 5838 5839 5840 5841 5842 5843 5844 5845 5846 5846 5847 5848 5848 5849 5849 5850 5850 5850 5849 5849 5848 5848 5847 5847 5848 5848 5848 5847 5847 5847 5847 5846 5845 5845 5845 5846 5847 5845 5845 5846 5846 5846 5846 5846 5847 5847 5846 5845 5845 5845 5844 5844 5844
5761 5764 5767 5770 5772 5775 5777 5780 5782 5784 5787 5789 5792 5794 5795 5797 5799 5801 5803 5805 5808 5810 5812 5815 5817 5819 5821 5824 5825 5826 5828 5829 5829 5831 5832 5834 5835 5836 5838 5839 5839 5840 5841 5842 5843 5844 5844 5845 5846 5846 5847 5847 5846 5845 5845 5844 5844 5844 5843 5843 5844 5844 5844 5843 5842 5842 5842 5841 5842 5841 5842 5843 5843 5842 5843 5843 5842 5843 5843 5843 5843 5843 5842 5841 5841 5841 5841 5841
5756 5759 5761 5764 5766 5769 5772 5774 5777 5779 5782 5785 5788 5789 5790 5793 5795 5797 5799 5801 5804 5805 5807 5810 5813 5814 5817 5819 5821 5822 5824 5825 5826 5827 5828 5830 5831 5832 5834 5835 5836 5837 5838 5838 5839 5840 5841 5842 5843 5844 5844 5842 5841 5842 5842 5841 5841 5840 5840 5839 5840 5840 5840 5840 5838 5837 5837 5837 5838 5838 5838 5840 5840 5839 5839 5839 5840 5840 5840 5839 5839 5840 5839 5838 5837 5837 5837 5837
5752 5754 5756 5759 5761 5764 5766 5769 5772 5774 5777 5780 5783 5784 5786 5788 5790 5792 5794 5797 5798 5800 5802 5805 5807 5810 5812 5814 5816 5818 5820 5822 5823 5823 5824 5826 5827 5828 5829 5830 5832 5833 5833 5834 5835 5836 5838 5839 5841 5841 5839 5838 5838 5838 5839 5838 5837 5837 5836 5836 5836 5836 5836 5835 5834 5833 5832 5832 5834 5835 5834 5836 5837 5836 5836 5836 5837 5837 5836 5835 5835 5835 5835 5834 5834 5833 5833 5833
5746 5749 5752 5754 5756 5759 5761 5764 5766 5769 5772 5775 5778 5778 5780 5782 5784 5787 5789 5790 5793 5795 5798 5800 5802 5805 5808 5809 5812 5813 5815 5817 5819 5819 5820 5822 5822 5823 5824 5826 5828 5829 5829 5830 5831 5832 5834 5836 5837 5836 5834 5834 5834 5834 5835 5835 5834 5833 5833 5832 5833 5832 5831 5831 5831 5830 5828 5827 5829 5830 5830 5832 5834 5833 5832 5833 5833 5834 5833 5832 5831 5831 5831 5830 5830 5829 5829 5829
5740 5744 5746 5749 5751 5753 5756 5759 5762 5765 5767 5770 5771 5772 5774 5777 5779 5781 5782 5784 5787 5790 5793 5795 5797 5800 5803 5804 5806 5808 5810 5812 5813 5815 5816 5817 5818 5818 5820 5822 5823 5824 5825 5826 5827 5828 5830 5832 5832 5831 5830 5830 5831 5831 5831 5830 5830 5830 5829 5829 5829 5829 5828 5827 5827 5826 5825 5824 5825 5826 5825 5827 5830 5830 5830 5829 5829 5831 5830 5829 5828 5827 5827 5826 5826 5825 5825 5825
5735 5738 5740 5743 5745 5748 5751 5754 5758 5761 5763 5764 5765 5766 5768 5770 5772 5775 5776 5777 5780 5785 5788 5790 5792 5794 5798 5800 5801 5802 5804 5807 5808 5810 5812 5813 5814 5814 5816 5818 5818 5819 5821 5821 5822 5824 5826 5827 5826 5826 5826 5827 5827 5827 5827 5826 5825 5825 5825 5825 5825 5826 5824 5824 5823 5822 5822 5821 5821 5820 5818 5822 5827 5826 5826 5827 5826 5827 5826 5825 5825 5824 5823 5823 5822 5822 5821 5821
5729 5731 5734 5737 5739 5742 5745 5749 5755 5757 5757 5759 5759 5760 5762 5764 5767 5769 5770 5769 5772 5780 5784 5785 5787 5790 5793 5794 5796 5798 5799 5801 5804 5805 5807 5809 5809 5810 5811 5812 5814 5816 5817 5817 5817 5819 5822 5822 5821 5822 5822 5823 5823 5823 5823 5823 5822 5821 5821 5821 5821 5822 5821 5820 5819 5818 5818 5817 5818 5816 5812 5815 5822 5822 5822 5824 5823 5823 5822 5822 5821 5820 5819 5819 5818 5818 5817 5817
5723 5725 5728 5731 5733 5736 5740 5746 5751 5750 5751 5754 5753 5754 5756 5759 5761 5762 5764 5762 5764 5774 5779 5781 5783 5784 5787 5788 5791 5793 5793 5795 5799 5800 5802 5803 5804 5805 5807 5808 5810 5811 5812 5811 5811 5814 5818 5818 5817 5817 5817 5818 5818 5819 5820 5819 5817 5816 5817 5818 5817 5817 5816 5815 5815 5814 5812 5812 5813 5812 5808 5808 5815 5819 5819 5819 5819 5819 5819 5818 5817 5816 5815 5814 5814 5814 5813 5813
5716 5719 5722 5724 5727 5730 5735 5741 5743 5744 5747 5748 5747 5749 5751 5753 5754 5756 5758 5754 5757 5769 5773 5776 5778 5779 5782 5783 5785 5787 5786 5791 5794 5794 5796 5798 5799 5801 5802 5804 5805 5806 5807 5806 5807 5810 5813 5813 5813 5813 5812 5813 5814 5815 5816 5814 5812 5812 5814 5814 5813 5812 5812 5811 5811 5810 5808 5808 5806 5806 5807 5804 5807 5814 5816 5814 5814 5816 5816 5814 5812 5811 5811 5810 5810 5809 5809 5809
5710 5712 5715 5718 5721 5725 5730 5733 5736 5740 5742 5741 5742 5744 5745 5747 5748 5750 5750 5746 5753 5763 5766 5769 5773 5774 5776 5777 5778 5780 5781 5785 5787 5788 5792 5793 5794 5796 5797 5799 5801 5801 5802 5800 5803 5806 5806 5807 5808 5808 5808 5809 5810 5810 5811 5810 5809 5808 5809 5809 5809 5808 5807 5807 5806 5805 5804 5803 5799 5802 5807 5802 5800 5806 5808 5809 5812 5813 5812 5810 5808 5807 5806 5806 5805 5805 5805 5804
5703 5706 5709 5711 5714 5718 5723 5727 5733 5735 5735 5735 5736 5736 5738 5740 5741 5742 5740 5741 5750 5757 5757 5762 5767 5769 5770 5771 5772 5774 5776 5779 5781 5783 5786 5787 5788 5791 5793 5795 5795 5796 5796 5796 5799 5800 5800 5801 5802 5803 5805 5805 5806 5805 5805 5806 5805 5804 5805 5805 5804 5803 5802 5802 5801 5801 5800 5796 5794 5799 5805 5801 5796 5798 5801 5804 5808 5809 5807 5805 5804 5802 5802 5802 5801 5801 5800 5800
5696 5699 5702 5703 5708 5713 5717 5722 5728 5728 5728 5728 5727 5729 5731 5731 5734 5733 5730 5738 5750 5751 5749 5754 5760 5763 5765 5766 5767 5769 5772 5774 5776 5778 5780 5781 5784 5786 5787 5789 5789 5790 5791 5792 5794 5794 5794 5796 5796 5797 5800 5801 5801 5801 5801 5801 5800 5800 5800 5800 5800 5799 5798 5797 5796 5796 5794 5790 5792 5798 5801 5798 5791 5791 5797 5800 5803 5804 5803 5802 5800 5798 5797 5797 5797 5796 5796 5796
5690 5692 5694 5697 5703 5707 5710 5716 5720 5721 5720 5719 5718 5719 5721 5723 5724 5720 5724 5739 5749 5745 5742 5746 5752 5758 5760 5762 5763 5764 5767 5769 5771 5772 5773 5776 5777 5779 5782 5783 5784 5785 5786 5787 5789 5790 5790 5791 5791 5791 5793 5795 5795 5796 5796 5796 5796 5796 5796 5795 5795 5794 5793 5792 5791 5791 5788 5786 5791 5794 5795 5793 5786 5786 5793 5796 5797 5798 5798 5798 5796 5794 5793 5792 5792 5792 5792 5792
5683 5685 5687 5692 5696 5699 5705 5710 5711 5711 5710 5710 5709 5709 5713 5713 5709 5710 5726 5741 5741 5737 5736 5738 5744 5750 5752 5755 5757 5759 5761 5762 5765 5766 5768 5770 5771 5774 5777 5778 5780 5780 5780 5783 5783 5784 5785 5785 5785 5785 5787 5789 5790 5791 5791 5792 5792 5792 5791 5791 5790 5788 5787 5786 5786 5786 5785 5784 5787 5789 5788 5785 5781 5784 5791 5792 5792 5792 5793 5794 5793 5790 5789 5788 5787 5787 5787 5788
5676 5679 5681 5685 5690 5694 5699 5700 5700 5701 5701 5702 5701 5701 5703 5699 5697 5711 5729 5735 5731 5731 5733 5733 5738 5740 5740 5744 5748 5752 5755 5756 5758 5760 5762 5764 5766 5769 5772 5773 5775 5775 5776 5778 5777 5777 5778 5779 5780 5780 5782 5784 5785 5785 5786 5787 5787 5786 5786 5786 5785 5783 5781 5780 5782 5782 5781 5781 5782 5782 5780 5776 5777 5783 5788 5788 5788 5788 5788 5789 5788 5786 5784 5783 5783 5783 5783 5784
5670 5672 5674 5679 5684 5688 5691 5690 5691 5694 5694 5694 5692 5691 5690 5687 5697 5715 5723 5725 5726 5726 5728 5728 5729 5729 5729 5734 5740 5744 5748 5750 5753 5755 5756 5758 5760 5764 5766 5768 5770 5770 5771 5772 5770 5770 5770 5771 5775 5777 5778 5779 5779 5780 5780 5780 5780 5779 5781 5781 5779 5778 5778 5777 5778 5776 5775 5775 5776 5775 5773 5771 5774 5779 5782 5783 5784 5785 5784 5783 5782 5781 5780 5779 5779 5780 5780 5780
5662 5664 5668 5671 5674 5679 5683 5683 5685 5686 5685 5686 5684 5679 5677 5683 5700 5713 5715 5719 5721 5719 5721 5720 5719 5720 5721 5726 5732 5736 5740 5744 5747 5749 5750 5753 5755 5759 5762 5763 5765 5764 5765 5765 5765 5765 5764 5765 5769 5771 5772 5773 5773 5773 5774 5774 5774 5774 5774 5773 5773 5776 5776 5774 5772 5770 5770 5769 5769 5768 5767 5768 5771 5774 5775 5776 5779 5781 5780 5778 5777 5776 5775 5776 5776 5776 5776 5776
5654 5657 5659 5662 5667 5673 5676 5676 5679 5680 5677 5677 5673 5666 5670 5685 5701 5707 5709 5713 5714 5713 5714 5712 5711 5714 5715 5719 5726 5729 5732 5736 5740 5742 5744 5747 5749 5753 5756 5758 5758 5758 5759 5760 5759 5759 5758 5760 5763 5763 5764 5766 5766 5766 5768 5768 5768 5767 5767 5768 5771 5772 5771 5769 5766 5766 5765 5763 5762 5763 5763 5765 5767 5767 5770 5771 5773 5775 5775 5774 5773 5772 5772 5773 5773 5773 5773 5773
5646 5649 5651 5655 5663 5668 5670 5672 5673 5671 5668 5666 5661 5660 5671 5686 5694 5698 5701 5704 5706 5705 5704 5705 5707 5709 5711 5713 5717 5722 5725 5728 5732 5735 5738 5740 5742 5747 5751 5752 5752 5753 5754 5753 5751 5752 5753 5753 5755 5756 5757 5759 5759 5759 5761 5762 5761 5760 5762 5766 5767 5764 5763 5763 5761 5761 5761 5758 5757 5758 5758 5759 5760 5762 5765 5767 5768 5768 5769 5770 5770 5770 5770 5769 5769 5769 5769 5769
5640 5642 5643 5650 5659 5661 5663 5665 5665 5664 5660 5654 5651 5657 5669 5680 5685 5690 5693 5694 5696 5694 5693 5699 5702 5702 5704 5706 5708 5713 5716 5719 5724 5727 5730 5733 5736 5741 5744 5745 5747 5747 5747 5746 5744 5746 5747 5746 5748 5749 5750 5751 5752 5752 5754 5755 5755 5756 5759 5761 5759 5757 5757 5758 5757 5756 5756 5753 5752 5752 5752 5754 5755 5758 5761 5762 5762 5762 5763 5765 5766 5766 5766 5765 5765 5765 5765 5766
5633 5634 5636 5645 5651 5653 5656 5657 5657 5655 5649 5641 5642 5653 5665 5674 5680 5682 5682 5684 5686 5685 5686 5693 5697 5695 5696 5699 5702 5705 5706 5710 5715 5719 5722 5725 5730 5735 5737 5738 5740 5741 5739 5738 5737 5740 5741 5741 5741 5742 5743 5743 5744 5745 5747 5749 5752 5753 5754 5754 5752 5751 5751 5751 5751 5751 5750 5748 5747 5747 5747 5749 5752 5755 5755 5755 5756 5757 5758 5761 5762 5762 5762 5761 5761 5761 5761 5761
5624 5624 5631 5640 5644 5645 5648 5649 5646 5641 5635 5632 5637 5650 5661 5667 5671 5672 5673 5677 5678 5676 5679 5687 5690 5688 5690 5693 5695 5699 5700 5702 5706 5710 5713 5718 5722 5727 5730 5731 5733 5734 5732 5731 5732 5734 5734 5734 5736 5736 5736 5737 5738 5740 5743 5746 5747 5747 5746 5745 5745 5745 5745 5745 5745 5745 5745 5744 5744 5743 5742 5745 5748 5748 5748 5749 5750 5752 5754 5756 5756 5757 5757 5757 5757 5756 5756 5756
5615 5615 5625 5635 5636 5636 5637 5635 5632 5629 5626 5626 5634 5646 5653 5655 5659 5663 5667 5670 5669 5669 5673 5678 5681 5682 5686 5687 5688 5692 5694 5694 5698 5701 5704 5710 5715 5719 5723 5725 5726 5728 5726 5724 5727 5729 5727 5728 5730 5730 5730 5731 5733 5736 5738 5738 5738 5738 5738 5737 5738 5738 5739 5739 5738 5740 5741 5741 5742 5740 5736 5739 5742 5740 5741 5743 5744 5747 5749 5750 5751 5751 5751 5752 5751 5751 5750 5750
5606 5608 5619 5627 5626 5626 5625 5621 5622 5622 5620 5622 5632 5641 5642 5643 5650 5656 5659 5661 5661 5663 5666 5668 5672 5676 5679 5681 5682 5684 5686 5687 5690 5693 5697 5703 5708 5713 5716 5717 5718 5720 5719 5719 5721 5723 5721 5721 5723 5723 5725 5726 5727 5728 5729 5730 5730 5730 5730 5731 5732 5733 5734 5735 5735 5737 5737 5735 5736 5734 5729 5733 5737 5735 5736 5738 5739 5740 5741 5743 5745 5745 5745 5746 5745 5745 5744 5744
5598 5604 5613 5615 5615 5617 5614 5611 5613 5613 5614 5621 5629 5631 5631 5636 5643 5645 5649 5652 5655 5658 5661 5662 5665 5668 5671 5675 5676 5676 5678 5681 5683 5687 5692 5696 5700 5705 5708 5709 5710 5711 5712 5714 5715 5715 5713 5713 5716 5717 5719 5721 5721 5721 5722 5722 5722 5722 5724 5727 5729 5730 5731 5731 5730 5730 5728 5727 5728 5725 5723 5728 5731 5729 5731 5734 5735 5734 5735 5736 5738 5738 5739 5739 5739 5739 5739 5739
5592 5599 5603 5604 5607 5608 5604 5603 5606 5607 5611 5618 5621 5621 5625 5630 5633 5636 5640 5645 5649 5652 5654 5656 5660 5662 5665 5668 5668 5669 5672 5674 5677 5682 5686 5688 5692 5698 5699 5700 5702 5703 5706 5708 5709 5709 5707 5707 5709 5711 5712 5714 5714 5714 5715 5715 5716 5718 5722 5724 5724 5725 5725 5723 5723 5722 5720 5721 5722 5717 5716 5722 5724 5723 5725 5728 5729 5730 5729 5730 5730 5730 5731 5733 5733 5733 5734 5734
5584 5589 5591 5595 5598 5597 5596 5600 5603 5603 5606 5611 5612 5616 5621 5622 5625 5630 5634 5637 5640 5643 5645 5650 5654 5656 5658 5659 5660 5662 5666 5669 5673 5676 5678 5680 5685 5689 5689 5691 5694 5696 5699 5701 5701 5701 5699 5699 5701 5703 5704 5706 5708 5709 5711 5713 5714 5714 5715 5716 5716 5718 5717 5716 5716 5714 5712 5714 5713 5709 5711 5717 5719 5718 5719 5721 5723 5724 5724 5723 5723 5723 5724 5725 5726 5727 5727 5728
5573 5577 5581 5586 5588 5587 5589 5595 5596 5595 5599 5602 5604 5608 5613 5616 5621 5625 5625 5626 5632 5636 5639 5644 5647 5648 5648 5651 5653 5655 5659 5664 5666 5667 5670 5673 5677 5679 5680 5683 5687 5688 5691 5693 5693 5693 5691 5691 5694 5696 5697 5700 5704 5706 5707 5707 5706 5706 5708 5709 5709 5710 5710 5709 5707 5705 5706 5707 5705 5705 5709 5711 5712 5713 5714 5716 5716 5716 5716 5717 5717 5718 5719 5719 5719 5720 5721 5721
5562 5565 5572 5578 5580 5579 5581 5586 5587 5589 5594 5597 5597 5601 5606 5611 5616 5616 5614 5618 5625 5630 5633 5635 5637 5637 5639 5644 5647 5648 5653 5656 5656 5659 5664 5667 5669 5671 5673 5675 5678 5679 5682 5683 5684 5684 5683 5684 5688 5690 5691 5696 5700 5700 5698 5698 5699 5700 5701 5702 5702 5703 5702 5700 5697 5700 5703 5699 5697 5703 5705 5705 5706 5708 5709 5710 5709 5709 5711 5712 5712 5713 5713 5713 5713 5713 5714 5715
5551 5555 5563 5568 5570 5570 5573 5579 5583 5586 5590 5590 5590 5594 5599 5603 5606 5607 5609 5615 5619 5621 5623 5624 5626 5630 5635 5640 5641 5642 5645 5648 5649 5653 5658 5660 5662 5663 5665 5667 5669 5671 5673 5674 5676 5678 5676 5677 5682 5683 5683 5690 5693 5691 5690 5691 5692 5692 5692 5693 5695 5695 5694 5692 5692 5696 5697 5690 5692 5699 5698 5698 5701 5703 5704 5704 5704 5705 5707 5706 5706 5706 5705 5705 5706 5706 5707 5708
5543 5548 5554 5557 5559 5561 5567 5574 5578 5580 5582 5582 5582 5586 5590 5594 5599 5602 5606 5609 5609 5610 5613 5615 5621 5628 5632 5634 5633 5633 5637 5640 5643 5648 5652 5653 5655 5656 5658 5660 5663 5665 5667 5667 5670 5672 5670 5671 5675 5675 5675 5682 5685 5682 5682 5683 5683 5684 5684 5685 5687 5687 5686 5685 5686 5690 5688 5684 5688 5692 5689 5692 5696 5697 5699 5700 5700 5701 5701 5699 5699 5699 5698 5698 5698 5699 5699 5699
5534 5540 5545 5547 5549 5553 5559 5564 5567 5570 5573 5573 5573 5577 5582 5587 5593 5597 5599 5600 5601 5605 5607 5610 5619 5625 5625 5624 5624 5625 5631 5636 5639 5644 5647 5646 5647 5650 5652 5653 5657 5660 5661 5660 5663 5665 5664 5664 5668 5668 5666 5671 5676 5675 5674 5674 5674 5675 5677 5678 5680 5680 5678 5677 5680 5684 5682 5681 5686 5685 5682 5687 5691 5692 5695 5695 5693 5694 5693 5692 5693 5693 5692 5692 5691 5692 5692 5691
5525 5531 5536 5537 5538 5543 5548 5553 5558 5561 5562 5563 5565 5570 5575 5581 5588 5591 5591 5592 5596 5599 5601 5606 5615 5617 5615 5615 5615 5619 5628 5634 5634 5638 5640 5638 5640 5644 5645 5646 5649 5652 5653 5653 5654 5656 5657 5657 5660 5660 5657 5662 5670 5668 5665 5667 5666 5664 5667 5673 5674 5671 5669 5671 5676 5678 5676 5677 5681 5678 5677 5684 5687 5686 5688 5686 5684 5685 5686 5687 5688 5686 5686 5685 5684 5684 5684 5684
5516 5521 5526 5526 5528 5534 5540 5545 5548 5549 5551 5557 5562 5564 5567 5574 5581 5582 5581 5584 5589 5592 5595 5601 5608 5607 5604 5606 5610 5618 5626 5628 5626 5629 5630 5630 5633 5635 5636 5638 5641 5642 5644 5646 5646 5647 5649 5650 5653 5653 5649 5655 5662 5660 5658 5660 5655 5652 5661 5670 5669 5664 5664 5666 5668 5670 5671 5672 5672 5670 5673 5679 5679 5677 5678 5678 5678 5679 5679 5680 5680 5679 5679 5678 5677 5677 5677 5677